Retour au catalogue

QIANFAN-139

ActifCommunicationsPO
NORAD 69085·PAYLOAD·🇨🇳 China

Lancé May 12, 2026 depuis Taiyuan Satellite Launch Center

Loading…

Prochains Passages (prochaines 24 heures)

TLE

FraisSource: Space-Track

Époque: Sep 14, 2026, 22:34 UTC

1 69085U 26104N   26257.94070560  .00000119  00000-0  16629-3 0  9992
2 69085  88.9907 332.3145 0002506 103.5381 256.6050 13.51029909 17276

Suivez QIANFAN-139 en temps réel avec AllMySat

Download on the App Store